Tracking 18852 objects as of 23-Nov-2017
HD Live streaming from Space Station
objects crossing your sky now

FENGYUN 1C DEB

Track FENGYUN 1C DEB now!
10-day predictions


NORAD ID: 36236
Int'l Code: 1999-025DVM
Perigee: 858.5 km
Apogee: 1,082.1 km
Inclination: 98.8 °
Period: 104.3 minutes
Semi major axis: 7341 km
RCS: 0.0104 m2 (small)
Launch date: May 10, 1999
Source: People's Republic of China (PRC)
Launch site: Taiyaun Space Center, China (TSC)

Note: This is SATELLITE DEBRIS
aabbcc
Your satellite tracking list
Your tracking list is empty




NASA's NSSDC Master Catalog

Two Line Element Set (TLE):
1 36236U 99025DVM 17315.25198563  .00000140  00000-0  15893-3 0  9995
2 36236  98.8286 116.8906 0152242   0.5399 359.5893 13.80201790465172
Source of the keplerian elements: AFSPC